{"data":{"norad_id":60331,"intl_designator":"2024-136C","name":"STARLINK-32203","alt_names":[],"object_type":"PAYLOAD","status":"ACTIVE","operator":null,"country":"US","launch_date":"2024-08-02","launch_site_code":"AFETR","launch_vehicle":null,"mission":null,"orbit_class":"UNKNOWN","rcs_meters":null,"size_class":null,"mass_kg":null,"dimensions":null,"purposes":["comms"],"wikipedia_slug":null,"has_3d_model":false,"image_url":null,"decayed_at":null,"tle_current":{"epoch":"2026-05-25T02:15:50.560416Z","epoch_age_seconds":63312,"freshness":"FRESH","line1":"1 60331U 24136C   26145.09433519  .00000190  00000+0  18525-4 0  9995","line2":"2 60331  53.1602  70.7477 0001069 100.9741 259.1380 15.30193629101506","mean_motion":15.30193629,"eccentricity":0.0001069,"inclination_deg":53.1602,"raan_deg":70.7477,"arg_perigee_deg":100.9741,"mean_anomaly_deg":259.138,"bstar":1.8525e-5,"rev_number":10150,"period_min":94.105737516438,"perigee_km":474.50146677319,"apogee_km":475.9667175127,"semimajor_km":6853.3710921429,"source":"CELESTRAK","updated_at":"2026-05-25T13:38:19.233061Z"}}}